Regional Weather Roundup
Issued by NWS Midland/Odessa, TX

Skip options and go directly to product.
Home | Oldest Version | Previous Version | Current Version | All | Graphics & Text | Save Text | Print | Product List | Glossary On

Skip product version selection by date and time.   
913
ASUS44 KMAF 261010
RWRMAF
MIDLAND AREA WEATHER ROUNDUP
NATIONAL WEATHER SERVICE MIDLAND TX
400 AM CST FRI DEC 26 2014

...IN SOUTHWEST TEXAS AND SOUTHEAST NEW MEXICO...

CITY           SKY/WX    TMP DP  RH WIND       PRES   REMARKS
ALPINE         CLEAR     54  17  23 SW14      29.89R
ANDREWS        FAIR      44  31  58 S12       29.77F WCI  38
ARTESIA        CLEAR     37  25  60 S9        29.74R WCI  31
BIG SPRING     MOCLDY    48  34  57 S17       29.82S
CARLSBAD       CLEAR     39  25  57 S13       29.73S WCI  31
DRYDEN           N/A     44  33  65 NE8       29.85R WCI  39
FORT STOCKTON  CLEAR     45  30  55 SE12      29.78S WCI  39
GUAD PASS      NOT AVBL
HOBBS          CLEAR     37  28  70 S10       29.77S WCI  30
MARFA          CLEAR     32  16  51 CALM      29.87R
MIDLAND AIRPK  PTCLDY    49  33  53 S8        29.80R
MIDLAND INTL   PTCLDY    47  32  56 S10       29.79R
ODESSA         PTCLDY    46  30  53 SW12      29.79R
PECOS          CLEAR     36  26  67 CALM      29.77R
PRESIDIO       FAIR      54  22  29 NE6       29.82R
SEMINOLE       PTCLDY    37  30  75 CALM      29.78S
SNYDER         CLOUDY    46  36  69 S9        29.81S
WINK           CLEAR     44  28  53 SE9       29.77R WCI  39
$$
...OTHER STATIONS IN TEXAS...

CITY           SKY/WX    TMP DP  RH WIND       PRES   REMARKS
ABILENE        CLEAR     49  38  65 S20G28    29.81S
AMARILLO       CLEAR     36  25  64 S12       29.74S WCI  28
AUSTIN         MOCLDY    53  50  89 S9        29.94F
BROWNSVILLE    CLOUDY    65  63  93 S17       29.93F
CORPUS CHRISTI CLOUDY    66  59  78 SE16      29.93F
DALLAS FTW     CLOUDY    54  47  77 S10       29.93F
DEL RIO        CLOUDY    49  43  80 E10       29.88F
EL PASO        PTCLDY    49  24  37 SW10      29.76S
HOUSTON INT    CLOUDY    60  54  80 SE5       30.02F
LUBBOCK        PTCLDY    40  29  64 S9        29.77S WCI  34
SAN ANGELO     MOCLDY    51  41  68 S12       29.84R
SAN ANTONIO    CLOUDY    55  49  80 CALM      29.95F
WACO           CLOUDY    52  47  83 SE8       29.94S
WICHITA FALLS  NOT AVBL
$$
...OTHER LOCATIONS IN NEW MEXICO...

CITY           SKY/WX    TMP DP  RH WIND       PRES   REMARKS
ALAMAGORDO     MOCLDY    48  23  37 S14G20    29.75S
ALBUQUERQUE    LGT SNOW  32  31  96 SE12      29.75S FOG     WCI  23
CANNON AFB     CLEAR     32  21  64 SE5       29.72S WCI  27
CLOVIS         CLEAR     28  21  74 SW9       29.72S WCI  20
HOLLOMAN AFB   MOCLDY    46  23  40 W13       29.75R
ROSWELL        CLEAR     33  21  61 S8        29.71R WCI  26
RUIDOSO        FLURRIES  37  25  60 SW18G26   29.76R WCI  27
SANTA FE       CLOUDY    29  25  85 S7        29.72S WCI  22
TRUTH OR CONSE PTCLDY    38  29  70 SW6       29.72F WCI  33
TUCUMCARI      CLEAR     33  19  56 W8        29.70R WCI  26
$$

USA.gov is the U.S. government's official web portal to all federal, state and local government web resources and services.